Cody, WY

10:07 AM MDT on April 28, 2017 (GMT -0600)
Yellowstone Regional

Weather History for KCOD - March, 2014

Change the Weather History Date:

Sunday, March 9, 2014

  Actual Average Record
Temperature  
Mean Temperature 52 °F -  
Max Temperature 57 °F 49 °F 72 °F (1972)
Min Temperature 44 °F 28 °F -19 °F (1932)
Degree Days  
Heating Degree Days 14    
Growing Degree Days 2 (Base 50)    
Moisture  
Dew Point 22 °F    
Average Humidity 33    
Maximum Humidity 57    
Minimum Humidity 22    
Precipitation  
Precipitation 0.00 in - - ()
Sea Level Pressure  
Sea Level Pressure 30.00 in    
Wind  
Wind Speed 17 mph (WSW)    
Max Wind Speed 26 mph    
Max Gust Speed 40 mph    
Visibility 10 miles    
Events      
Averages and records for this station are not official NWS values.
T = Trace of Precipitation, MM = Missing Value Source: NWS Daily Summary

Daily Weather History Graph

Daily Weather History Graph

Search for Another Location

Airport or City:

Trip Planner

Search our weather history database for the weather conditions in past years. The results will help you decide how hot, cold, wet, or windy it might be!

Date:

Astronomy

Mar. 09, 2014 Rise Set
Actual Time 7:39 AM MDT 7:14 PM MDT
Civil Twilight 7:10 AM MDT 7:43 PM MDT
Nautical Twilight 6:36 AM MDT 8:17 PM MDT
Astronomical Twilight 6:02 AM MDT 8:51 PM MDT
Moon 1:00 PM MDT (3/9) 3:17 AM MDT (3/9)
Length of Visible Light 12h 33m
Length of Day
11h 35m
First Quarter, 61% of the Moon is Illuminated
Mar 9
First Quarter
Mar 16
Full
Mar 23
Last Quarter
Mar 30
New
Apr 7
First Quarter

Hourly Weather History & Observations

Time (MDT) Temp. Windchill Dew Point Humidity Pressure Visibility Wind Dir Wind Speed Gust Speed Precip Events Conditions
12:15 AM 48.2 °F - 17.6 °F 30% 30.05 in 10.0 mi SW 16.1 mph 25.3 mph N/A   Clear
12:35 AM 50.0 °F - 17.6 °F 28% 30.04 in 10.0 mi WSW 17.3 mph 27.6 mph N/A   Clear
12:55 AM 50.0 °F - 17.6 °F 28% 30.04 in 10.0 mi WSW 17.3 mph 29.9 mph N/A   Clear
1:15 AM 51.8 °F - 15.8 °F 24% 30.03 in 10.0 mi WSW 23.0 mph 33.4 mph N/A   Clear
1:35 AM 51.8 °F - 15.8 °F 24% 30.03 in 10.0 mi WSW 20.7 mph 29.9 mph N/A   Clear
1:55 AM 51.8 °F - 15.8 °F 24% 30.02 in 10.0 mi WSW 19.6 mph 32.2 mph N/A   Clear
3:15 AM 51.8 °F - 14.0 °F 22% 30.02 in 10.0 mi WSW 21.9 mph 31.1 mph N/A   Clear
3:35 AM 51.8 °F - 14.0 °F 22% 30.02 in 10.0 mi WSW 20.7 mph 35.7 mph N/A   Clear
3:55 AM 51.8 °F - 15.8 °F 24% 30.02 in 10.0 mi West 18.4 mph 33.4 mph N/A   Clear
4:15 AM 51.8 °F - 15.8 °F 24% 30.01 in 10.0 mi WSW 20.7 mph 29.9 mph N/A   Clear
4:35 AM 51.8 °F - 15.8 °F 24% 30.01 in 10.0 mi WSW 19.6 mph 34.5 mph N/A   Clear
4:55 AM 51.8 °F - 15.8 °F 24% 30.01 in 10.0 mi West 13.8 mph 34.5 mph N/A   Clear
5:15 AM 51.8 °F - 15.8 °F 24% 30.00 in 10.0 mi WSW 21.9 mph 32.2 mph N/A   Clear
5:35 AM 51.8 °F - 17.6 °F 26% 30.02 in 10.0 mi WSW 21.9 mph 33.4 mph N/A   Clear
5:55 AM 51.8 °F - 17.6 °F 26% 30.02 in 10.0 mi WSW 15.0 mph 26.5 mph N/A   Clear
6:15 AM 51.8 °F - 17.6 °F 26% 30.02 in 10.0 mi WSW 18.4 mph 28.8 mph N/A   Clear
6:35 AM 51.8 °F - 17.6 °F 26% 30.03 in 10.0 mi WSW 10.4 mph 23.0 mph N/A   Clear
6:55 AM 48.2 °F - 17.6 °F 30% 30.04 in 10.0 mi West 5.8 mph - N/A   Clear
7:15 AM 51.8 °F - 15.8 °F 24% 30.03 in 10.0 mi West 8.1 mph - N/A   Clear
7:35 AM 51.8 °F - 15.8 °F 24% 30.02 in 10.0 mi South 8.1 mph 23.0 mph N/A   Clear
7:55 AM 50.0 °F - 15.8 °F 26% 30.02 in 10.0 mi SSE 4.6 mph - N/A   Clear
8:15 AM 48.2 °F - 17.6 °F 30% 30.00 in 10.0 mi SSE 9.2 mph 18.4 mph N/A   Clear
8:35 AM 50.0 °F - 17.6 °F 28% 30.02 in 10.0 mi West 10.4 mph 19.6 mph N/A   Scattered Clouds
8:55 AM 50.0 °F - 15.8 °F 26% 30.01 in 10.0 mi WSW 11.5 mph 18.4 mph N/A   Overcast
9:15 AM 51.8 °F - 15.8 °F 24% 30.00 in 10.0 mi WSW 12.7 mph 18.4 mph N/A   Overcast
9:35 AM 51.8 °F - 15.8 °F 24% 30.01 in 10.0 mi WSW 10.4 mph 16.1 mph N/A   Overcast
9:55 AM 51.8 °F - 17.6 °F 26% 30.01 in 10.0 mi West 12.7 mph - N/A   Overcast
10:15 AM 53.6 °F - 17.6 °F 24% 30.02 in 10.0 mi West 11.5 mph 21.9 mph N/A   Overcast
10:35 AM 53.6 °F - 17.6 °F 24% 30.02 in 10.0 mi West 11.5 mph 19.6 mph N/A   Overcast
10:55 AM 53.6 °F - 17.6 °F 24% 30.02 in 10.0 mi West 12.7 mph 19.6 mph N/A   Overcast
11:15 AM 53.6 °F - 19.4 °F 26% 30.02 in 10.0 mi West 13.8 mph 25.3 mph N/A   Overcast
11:35 AM 53.6 °F - 19.4 °F 26% 30.02 in 10.0 mi West 17.3 mph 23.0 mph N/A   Overcast
11:55 AM 53.6 °F - 21.2 °F 28% 30.02 in 10.0 mi West 8.1 mph 23.0 mph N/A   Overcast
12:15 PM 55.4 °F - 21.2 °F 26% 30.02 in 10.0 mi West 11.5 mph 19.6 mph N/A   Overcast
12:35 PM 55.4 °F - 19.4 °F 25% 30.01 in 10.0 mi West 13.8 mph 21.9 mph N/A   Overcast
12:55 PM 55.4 °F - 21.2 °F 26% 30.00 in 10.0 mi West 16.1 mph 26.5 mph N/A   Mostly Cloudy
1:15 PM 55.4 °F - 21.2 °F 26% 30.01 in 10.0 mi WSW 16.1 mph 26.5 mph N/A   Scattered Clouds
1:35 PM 55.4 °F - 23.0 °F 29% 30.00 in 10.0 mi WSW 20.7 mph 27.6 mph N/A   Scattered Clouds
1:55 PM 55.4 °F - 23.0 °F 29% 30.00 in 10.0 mi West 18.4 mph 28.8 mph N/A   Mostly Cloudy
2:15 PM 55.4 °F - 24.8 °F 31% 29.99 in 10.0 mi WSW 15.0 mph 26.5 mph N/A   Scattered Clouds
2:35 PM 55.4 °F - 24.8 °F 31% 29.99 in 10.0 mi West 15.0 mph 23.0 mph N/A   Mostly Cloudy
2:55 PM 57.2 °F - 24.8 °F 29% 29.99 in 10.0 mi West 12.7 mph 25.3 mph N/A   Overcast
3:15 PM 57.2 °F - 24.8 °F 29% 29.99 in 10.0 mi West 13.8 mph 24.2 mph N/A   Overcast
3:35 PM 55.4 °F - 26.6 °F 33% 29.98 in 10.0 mi West 20.7 mph 28.8 mph N/A   Mostly Cloudy
3:55 PM 55.4 °F - 26.6 °F 33% 29.98 in 10.0 mi West 24.2 mph 35.7 mph N/A   Partly Cloudy
4:15 PM 53.6 °F - 26.6 °F 35% 29.98 in 10.0 mi West 26.5 mph 38.0 mph N/A   Clear
4:35 PM 55.4 °F - 28.4 °F 36% 29.99 in 10.0 mi West 20.7 mph 34.5 mph N/A   Clear
4:55 PM 55.4 °F - 28.4 °F 36% 29.99 in 10.0 mi West 18.4 mph 38.0 mph N/A   Clear
5:15 PM 53.6 °F - 28.4 °F 38% 30.00 in 10.0 mi West 23.0 mph 29.9 mph N/A   Clear
5:35 PM 51.8 °F - 28.4 °F 41% 29.99 in 10.0 mi West 23.0 mph 35.7 mph N/A   Clear
5:55 PM 51.8 °F - 28.4 °F 41% 29.99 in 10.0 mi WSW 25.3 mph 33.4 mph N/A   Clear
6:15 PM 51.8 °F - 28.4 °F 41% 29.98 in 10.0 mi WSW 18.4 mph 36.8 mph N/A   Clear
6:35 PM 51.8 °F - 28.4 °F 41% 29.98 in 10.0 mi WSW 18.4 mph 31.1 mph N/A   Clear
6:55 PM 51.8 °F - 28.4 °F 41% 29.98 in 10.0 mi WSW 20.7 mph 34.5 mph N/A   Clear
7:15 PM 51.8 °F - 28.4 °F 41% 29.98 in 10.0 mi WSW 23.0 mph 36.8 mph N/A   Clear
7:35 PM 50.0 °F - 28.4 °F 43% 29.98 in 10.0 mi WSW 23.0 mph 36.8 mph N/A   Clear
7:55 PM 50.0 °F - 28.4 °F 43% 29.98 in 10.0 mi WSW 23.0 mph 40.3 mph N/A   Clear
8:15 PM 50.0 °F - 28.4 °F 43% 29.99 in 10.0 mi West 12.7 mph 29.9 mph N/A   Clear
8:35 PM 48.2 °F - 28.4 °F 46% 29.99 in 10.0 mi WSW 18.4 mph 29.9 mph N/A   Clear
8:55 PM 48.2 °F - 28.4 °F 46% 30.00 in 10.0 mi West 15.0 mph 27.6 mph N/A   Clear
9:15 PM 50.0 °F - 28.4 °F 43% 30.00 in 10.0 mi West 12.7 mph 24.2 mph N/A   Clear
9:35 PM 48.2 °F - 28.4 °F 46% 29.99 in 10.0 mi WSW 23.0 mph 31.1 mph N/A   Clear
9:55 PM 50.0 °F - 28.4 °F 43% 29.98 in 10.0 mi WSW 23.0 mph 39.1 mph N/A   Clear
10:15 PM 50.0 °F - 28.4 °F 43% 29.99 in 10.0 mi WSW 19.6 mph 34.5 mph N/A   Clear
10:35 PM 50.0 °F - 28.4 °F 43% 29.99 in 10.0 mi WSW 18.4 mph 36.8 mph N/A   Clear
10:55 PM 50.0 °F - 28.4 °F 43% 29.98 in 10.0 mi WSW 18.4 mph 29.9 mph N/A   Clear
11:15 PM 50.0 °F - 28.4 °F 43% 29.98 in 10.0 mi WSW 15.0 mph 26.5 mph N/A   Clear
11:35 PM 50.0 °F - 28.4 °F 43% 29.98 in 10.0 mi WSW 12.7 mph 19.6 mph N/A   Clear
11:55 PM 48.2 °F - 28.4 °F 46% 29.96 in 10.0 mi SSW 19.6 mph - N/A   Clear
12:15 AM 48.2 °F - 28.4 °F 46% 29.95 in 10.0 mi SW 15.0 mph 24.2 mph N/A   Clear
12:35 AM 46.4 °F 41.1 °F 30.2 °F 53% 29.96 in 10.0 mi SSW 11.5 mph - N/A   Clear
12:55 AM 44.6 °F 38.4 °F 30.2 °F 57% 29.95 in 10.0 mi SW 12.7 mph - N/A   Clear